Location: Bittelbronn
(48.4454°N, 8.5870°E)
Time: 06:12:30
(UTC+00:00)

Cosmos 724 - Pass Details

Date: 11 August 2024
Orbit: 862 x 932 km, 65.6° (Epoch: 07 September)

Event Time Altitude Azimuth Distance (km) Brightness Sun altitude
Rises 03:18:39 0° 175° (S) 3,444 7.1 -8.9°
Reaches altitude 10° 03:21:34 10° 162° (SSE) 2,504 6.5 -8.5°
Maximum altitude 03:26:04 24° 110° (ESE) 1,717 6.3 -7.8°
Drops below altitude 10° 03:30:34 10° 59° (ENE) 2,508 8.5 -7.2°
Sets 03:33:29 0° 46° (NE) 3,451 9.4 -6.8°
